Regional Weather Roundup
Issued by NWS

Home | Current Version | Previous Version | Text Only | Print | Product List | Glossary On
Versions: 1 2 3 4 5 6 7 8 9 10 11 12 13 14 15 16 17 18 19 20 21 22 23 24 25 26 27 28 29 30 31 32 33 34 35 36 37 38 39 40 41 42 43 44 45 46 47 48 49 50
000
ASUS43 KFSD 302010
RWRSD

WEATHER ROUNDUP FOR SOUTH DAKOTA
NATIONAL WEATHER SERVICE SIOUX FALLS SD
300 PM CDT MON MAR 30 2015

NOTE: "FAIR" INDICATES FEW OR NO CLOUDS BELOW 12,000 FEET WITH NO
SIGNIFICANT WEATHER AND/OR OBSTRUCTIONS TO VISIBILITY.


SDZ001>005-009-010-012>017-302100-
NORTHWEST AND NORTH CENTRAL SOUTH DAKOTA

CITY           SKY/WX    TMP DP  RH WIND       PRES   REMARKS
BUFFALO          N/A     66  27  23 NW25      29.94F
FAITH            N/A     69  24  18 NW23G36   29.97F
MOBRIDGE       SUNNY     71  35  26 NW24G31   29.88R
$$

SDZ012>016-024>037-041>051-057-063-072>074-302100-
SOUTHWEST AND SOUTH CENTRAL SOUTH DAKOTA

CITY           SKY/WX    TMP DP  RH WIND       PRES   REMARKS
RAPID CTY ARPT MOSUNNY   68  30  24 N22G31    30.03F
PIERRE         MOSUNNY   71  30  21 NW21G29   29.92S
CUSTER         SUNNY     62  19  19 NW14G21   30.10F
ELLSWORTH AFB  PTSUNNY   66  31  26 N22       30.03F
PHILIP         PTSUNNY   70  26  19 NW22G33   29.98F
PINE RIDGE     SUNNY     69  28  21 W8        30.06F
SPEARFISH      FAIR      63  30  29 NW15      30.08F
WINNER         FAIR      73  27  18 NW26G36   29.96F
$$

SDZ004>011-016>023-039-040-302100-
NORTHEAST SOUTH DAKOTA

CITY           SKY/WX    TMP DP  RH WIND       PRES   REMARKS
ABERDEEN       SUNNY     72  34  24 NW23G36   29.83S
WATERTOWN      FAIR      70  31  23 NW23G32   29.81F
SISSETON         N/A     70  36  28 NW24G32   29.77S
$$

SDZ017-020-022-023-036>040-048>070-302100-
SOUTHEAST SOUTH DAKOTA

CITY           SKY/WX    TMP DP  RH WIND       PRES   REMARKS
SIOUX FALLS    CLOUDY    75  25  15 W22G37    29.83F
HURON          MOSUNNY   74  29  19 NW25G36   29.84F
CHAMBERLAIN    MOSUNNY   70  30  22 NW23G30   29.92F
MITCHELL       PTSUNNY   74  30  19 NW23G32   29.87F
YANKTON        FAIR      75  28  17 W23G32    29.87F
$$

ABBREVIATIONS USED IN REMARKS
   TC - TEMPERATURE IN CELSIUS
  WCI - WIND CHILL INDEX
   HX - HEAT INDEX
  VSB - VISIBILITY




USA.gov is the U.S. government's official web portal to all federal, state and local government web resources and services.